Location: Lombard
(41.8800°N, 88.0080°W)
Time: 01:37:14
(UTC-05:00)

Gurwin Techsat 1B - Pass Details

Date: 17 May 2022
Orbit: 811 x 814 km, 98.8° (Epoch: 27 June)

Event Time Altitude Azimuth Distance (km) Brightness Sun altitude
Rises 02:38:27 0° 23° (NNE) 3,344 13.2 -23.7°
Reaches altitude 10° 02:41:03 10° 33° (NNE) 2,408 12.2 -23.5°
Maximum altitude 02:45:48 33° 97° (E) 1,345 9.9 -23.0°
Enters shadow 02:48:28 21° 144° (SE) 1,743 10.1 -22.8°
